This is the latest recevied weather packets stored in our database for station/object CE4ERM-13. If no packets are shown the sender has not sent any weather packets the latest 10 day(s).
| Time | Temp. | Humidity | Pressure | Rain* | Wind** | Luminosity | Snow |
|---|---|---|---|---|---|---|---|
| 1778072207 | 17.78° C | 48% | 1018.2 hPa | - | - | - | - |
| 1778071760 | 21.11° C | 48% | 1018.7 hPa | - | - | - | - |
| 1778071607 | 17.78° C | 47% | 1021.6 hPa | - | - | - | - |
| 1778071006 | 17.78° C | 46% | 1023.2 hPa | - | - | - | - |
| 1778070406 | 17.78° C | 47% | 1022.6 hPa | - | - | - | - |
| 1778069806 | 17.22° C | 47% | 1021.5 hPa | - | - | - | - |
| 1778069357 | 19.44° C | 48% | 1018.1 hPa | - | - | - | - |
| 1778069206 | 17.78° C | 47% | 1021.8 hPa | - | - | - | - |
| 1778068757 | 18.89° C | 47% | 1017 hPa | - | - | - | - |
| 1778068605 | 17.78° C | 47% | 1012.4 hPa | - | - | - | - |
| 1778068157 | 18.33° C | 47% | 1016.3 hPa | - | - | - | - |
| 1778068005 | 17.78° C | 47% | 1020.1 hPa | - | - | - | - |
| 1778067405 | 17.78° C | 47% | 1016 hPa | - | - | - | - |
| 1778066957 | 18.33° C | 47% | 1018.9 hPa | - | - | - | - |
| 1778066805 | 17.78° C | 47% | 1018.9 hPa | - | - | - | - |
| 1778066357 | 18.33° C | 47% | 1019.5 hPa | - | - | - | - |
| 1778065605 | 17.78° C | 47% | 1018.6 hPa | - | - | - | - |
| 1778065004 | 17.78° C | 47% | 1020.9 hPa | - | - | - | - |
| 1778064556 | 18.89° C | 48% | 1018.2 hPa | - | - | - | - |
| 1778064404 | 17.78° C | 47% | 1018.9 hPa | - | - | - | - |
| 1778063956 | 18.89° C | 47% | 1018.1 hPa | - | - | - | - |
| 1778063803 | 17.22° C | 48% | 1019.4 hPa | - | - | - | - |
| 1778063356 | 18.89° C | 46% | 1017.7 hPa | - | - | - | - |
| 1778063203 | 17.22° C | 45% | 1018.6 hPa | - | - | - | - |
| 1778062756 | 18.89° C | 47% | 1019 hPa | - | - | - | - |
* Rain since midnight (hover to see other rain measurements)
** Current wind speed in m/s (hover to see current wind gust speed)